TimeEDT,TemperatureF,Dew PointF,Humidity,Sea Level PressureIn,VisibilityMPH,Wind Direction,Wind SpeedMPH,Gust SpeedMPH,PrecipitationIn,Events,Conditions,WindDirDegrees,DateUTC
12:53 AM,82.0,73.9,76,29.84,10.0,South,4.6,-,N/A,,Partly Cloudy,170,2012-10-01 04:53:00
1:53 AM,82.0,73.9,76,29.83,9.0,SSE,5.8,-,N/A,,Scattered Clouds,150,2012-10-01 05:53:00
2:53 AM,79.0,73.9,84,29.81,10.0,South,3.5,-,N/A,,Overcast,180,2012-10-01 06:53:00
3:53 AM,81.0,73.9,79,29.79,10.0,South,5.8,-,N/A,,Overcast,170,2012-10-01 07:53:00
4:53 AM,81.0,75.0,82,29.78,10.0,SSE,6.9,-,N/A,,Mostly Cloudy,150,2012-10-01 08:53:00
5:53 AM,81.0,75.0,82,29.79,10.0,SSE,6.9,-,N/A,,Mostly Cloudy,160,2012-10-01 09:53:00
6:53 AM,78.1,73.0,84,29.79,10.0,SSE,5.8,-,0.00,Rain,Light Rain,160,2012-10-01 10:53:00
7:53 AM,80.1,75.0,85,29.80,10.0,SE,8.1,-,N/A,,Overcast,140,2012-10-01 11:53:00
8:53 AM,82.9,75.0,77,29.81,10.0,South,10.4,-,N/A,,Scattered Clouds,170,2012-10-01 12:53:00
9:53 AM,84.0,75.9,76,29.83,10.0,South,11.5,-,0.00,,Mostly Cloudy,190,2012-10-01 13:53:00
10:53 AM,84.9,75.0,72,29.83,10.0,South,12.7,-,N/A,,Mostly Cloudy,180,2012-10-01 14:53:00
11:49 AM,84.2,73.4,70,29.83,10.0,SSW,10.4,20.7,N/A,,Mostly Cloudy,210,2012-10-01 15:49:00
11:53 AM,84.9,73.9,69,29.83,10.0,SSW,12.7,-,N/A,,Mostly Cloudy,210,2012-10-01 15:53:00
12:46 PM,87.8,73.4,62,29.82,10.0,SW,16.1,25.3,N/A,,Mostly Cloudy,220,2012-10-01 16:46:00
12:53 PM,87.1,73.0,63,29.82,10.0,SW,20.7,27.6,N/A,,Mostly Cloudy,220,2012-10-01 16:53:00
1:53 PM,88.0,73.9,63,29.80,10.0,SSW,13.8,24.2,N/A,,Mostly Cloudy,210,2012-10-01 17:53:00
2:53 PM,87.1,73.0,63,29.79,10.0,SSW,13.8,-,N/A,,Mostly Cloudy,210,2012-10-01 18:53:00
3:53 PM,86.0,72.0,63,29.77,10.0,SW,13.8,-,N/A,,Mostly Cloudy,220,2012-10-01 19:53:00
4:22 PM,80.6,75.2,84,29.79,4.0,South,12.7,21.9,0.00,Rain,Light Rain,180,2012-10-01 20:22:00
4:53 PM,81.0,75.0,82,29.80,10.0,SSW,20.7,26.5,0.03,,Mostly Cloudy,210,2012-10-01 20:53:00
5:53 PM,78.1,73.0,84,29.80,10.0,SSW,4.6,-,0.00,Rain,Light Rain,200,2012-10-01 21:53:00
6:53 PM,77.0,73.0,88,29.81,10.0,South,3.5,-,0.01,Rain,Light Rain,180,2012-10-01 22:53:00
7:28 PM,78.8,75.2,89,29.84,2.0,South,8.1,-,0.02,Rain,Heavy Rain,180,2012-10-01 23:28:00
7:44 PM,77.0,75.2,94,29.85,0.5,SW,10.4,-,0.21,Fog-Rain,Heavy Rain,230,2012-10-01 23:44:00
7:53 PM,75.9,75.0,97,29.85,0.8,SW,12.7,-,0.41,Rain,Heavy Rain,220,2012-10-01 23:53:00
7:59 PM,75.2,73.4,94,29.86,1.2,SSW,10.4,-,0.00,Rain,Heavy Rain,210,2012-10-01 23:59:00
8:07 PM,75.2,73.4,94,29.86,2.0,SW,6.9,-,0.04,Rain,Heavy Rain,220,2012-10-02 00:07:00
8:22 PM,75.2,73.4,94,29.85,4.0,South,3.5,-,0.09,Rain,Light Rain,170,2012-10-02 00:22:00
8:53 PM,75.9,73.0,91,29.85,10.0,Calm,Calm,-,0.15,Rain,Light Rain,0,2012-10-02 00:53:00
9:53 PM,77.0,73.9,90,29.86,10.0,SSE,4.6,-,0.01,Rain,Light Rain,160,2012-10-02 01:53:00
10:53 PM,77.0,73.9,90,29.88,10.0,SSE,9.2,-,0.05,Rain,Light Rain,160,2012-10-02 02:53:00
11:53 PM,75.9,73.0,91,29.86,10.0,SSE,5.8,-,0.04,Rain,Light Rain,160,2012-10-02 03:53:00